Showing default

LARETS, 27944

Orbit data source: Space-Track

LARETS, 27944 is a payload satellite owned by NII KP (CIS) in SSO that was launched on Sat, 27 Sep 2003 UTC via a KOSMOS 11K65M launch vehicle from the Plesetsk Missile And Space Complex (PKMTR). Payload-class satellites include a variety of spacecraft equipped with specific instruments for various scientific and technological missions. These include communications satellites like Starlink; space stations such as the ISS; scientific satellites like the Hubble; Earth observation satellites from companies like Planet Labs, Umbra, and HawkEye 360; GPS; miniature CubeSats for education and research; and military/defense satellites.

Loading next visibility...
Identifier
27944, 2003-042F
Orbit
SSO
Country
Flag of CISCIS
Related business
Manufacturer
NII KP
Mission
Operational Defense Calibration
Bus & Motor
Unknown
Mass
~10 kg wet, ~10 kg dry
Launch date (UTC)
2003-09-27 (22 years ago)
Launch vehicle
KOSMOS 11K65M
Launch site
Plesetsk Missile And Space Complex (PKMTR)
Object type
Payload
Rocket body
Debris
Shape & HBR
Sphere, 0.1 m
Radar Cross Section
0.031 m², Medium (>0.1 m² and < 1m²)

Expand to show TLE details & history
Last TLE update: 8 hours ago

TLE from 8 hours ago
0 LARETS
1 27944U 03042F   25353.89253620  .00000027  00000-0  14752-4 0  9990
2 27944  98.3903 147.5754 0011268 232.2605 127.7576 14.63822348187137
Epoch: 2025-12-19T21:25Z
TLE epoch observation values (Epoch: 2025-12-19T21:25:15.127Z)
Latitude
-0.00005°
Longitude
97.53521°
Altitude
688.72 km
Speed
7.509 km/s
True Right ascension
09h 50m 18s
True Declination
0° 00' 00"
Sunlit
Object was in full shadow at epoch
Visualization orbit readout
Latitude
Unknown
Longitude
Unknown
Altitude
Unknown
Speed
Unknown
Apparent Right ascension
Unknown
Apparent Declination
Unknown
Sunlit
N/A
Visualization observer readout
Local Sidereal Time
04:10:04
Azimuth
Unknown
Elevation
Unknown
Doppler factor
Unknown
Orbital elements
Apogee altitude
685.895 km
Perigee altitude
669.993 km
Semi-major axis
7,056.081 km
Eccentricity
0.00113
Inclination
98.3903°
RAAN
147.5754°
Arg. of periapsis
232.2605°
True anomaly
127.8596°
Mean anomaly
127.7576°
Eccentric anomaly
127.80861°
Mean motion
3.66183 °/min
Orbital period
98.31 mins
BSTAR
0.000014752
Loading maneuver chart data...
Computing Atmospheric mass density...
Loading historical data...
Loading historical data...
Loading historical data...
Loading historical data...
Loading historical data...
Loading historical data...
Loading historical data...

Documentation

Showing up to 5 results
|